Year,Month,Day,Hour,Minute,Value (Times are PST for temperature in C)
2013,08,25,09,09,14.70
2013,08,25,09,10,14.60
2013,08,25,09,11,14.50
2013,08,25,09,12,14.40
2013,08,25,09,13,14.30
2013,08,25,09,14,14.20
2013,08,25,09,15,14.20
2013,08,25,09,16,14.30
2013,08,25,09,17,14.40
2013,08,25,09,18,14.50
2013,08,25,09,19,14.60
2013,08,25,09,20,14.80
2013,08,25,09,21,14.90
2013,08,25,09,22,15.10
2013,08,25,09,23,15.20
2013,08,25,09,24,15.40
2013,08,25,09,25,15.50
2013,08,25,09,26,15.60
2013,08,25,09,27,15.70
2013,08,25,09,28,15.80
2013,08,25,09,29,15.90
2013,08,25,09,30,15.90
2013,08,25,09,31,15.90
2013,08,25,09,32,15.80
2013,08,25,09,33,15.80
2013,08,25,09,34,15.80
2013,08,25,09,35,15.60
2013,08,25,09,36,15.50
2013,08,25,09,37,15.30
2013,08,25,09,38,15.20
2013,08,25,09,39,14.90
2013,08,25,09,40,14.70
2013,08,25,09,41,14.60
2013,08,25,09,42,14.50
2013,08,25,09,43,14.40
2013,08,25,09,44,14.30
2013,08,25,09,45,14.20
2013,08,25,09,46,14.20
2013,08,25,09,47,14.20
2013,08,25,09,48,14.40
2013,08,25,09,49,14.30
2013,08,25,09,50,14.20
2013,08,25,09,51,14.20
2013,08,25,09,52,14.10
2013,08,25,09,53,13.90
2013,08,25,09,54,13.70
2013,08,25,09,55,13.70
2013,08,25,09,56,13.70
2013,08,25,09,57,13.80
2013,08,25,09,58,13.90
2013,08,25,09,59,14.00
2013,08,25,10,00,14.20
2013,08,25,10,01,14.20
2013,08,25,10,02,14.40
2013,08,25,10,03,14.50
2013,08,25,10,04,14.50
2013,08,25,10,05,14.60
2013,08,25,10,06,14.70
2013,08,25,10,07,14.90
2013,08,25,10,08,15.10
2013,08,25,10,09,15.20
2013,08,25,10,10,15.30
2013,08,25,10,11,15.30
2013,08,25,10,12,15.40
2013,08,25,10,13,15.50
2013,08,25,10,14,15.50
2013,08,25,10,15,15.60
2013,08,25,10,16,15.70
2013,08,25,10,17,15.80
2013,08,25,10,18,15.80
2013,08,25,10,19,15.80
2013,08,25,10,20,15.90
2013,08,25,10,21,16.00
2013,08,25,10,22,16.10
2013,08,25,10,23,16.10
2013,08,25,10,24,16.20
2013,08,25,10,25,16.20
2013,08,25,10,26,16.30
2013,08,25,10,27,16.40
2013,08,25,10,28,16.50
2013,08,25,10,29,16.60
2013,08,25,10,30,16.70
2013,08,25,10,31,16.50
2013,08,25,10,32,16.10
2013,08,25,10,33,15.80
2013,08,25,10,34,15.50
2013,08,25,10,35,15.30
2013,08,25,10,36,15.20
2013,08,25,10,37,15.20
2013,08,25,10,38,15.20
2013,08,25,10,39,15.20
2013,08,25,10,40,15.30
2013,08,25,10,41,15.30
2013,08,25,10,42,15.30
2013,08,25,10,43,15.30
2013,08,25,10,44,15.40
2013,08,25,10,45,15.40
2013,08,25,10,46,15.50
2013,08,25,10,47,15.50
2013,08,25,10,48,15.50
2013,08,25,10,49,15.60
2013,08,25,10,50,15.70
2013,08,25,10,51,15.80
2013,08,25,10,52,15.80
2013,08,25,10,53,15.80
2013,08,25,10,54,15.80
2013,08,25,10,55,15.70
2013,08,25,10,56,15.50
2013,08,25,10,57,15.30
2013,08,25,10,58,15.20
2013,08,25,10,59,15.10
2013,08,25,11,00,15.10
2013,08,25,11,01,15.10
2013,08,25,11,02,15.30
2013,08,25,11,03,15.40
2013,08,25,11,04,15.70
2013,08,25,11,05,15.80
2013,08,25,11,06,16.10
2013,08,25,11,07,16.30
2013,08,25,11,08,16.50
2013,08,25,11,09,16.70
2013,08,25,11,10,16.60
2013,08,25,11,11,16.60
2013,08,25,11,12,16.70
2013,08,25,11,13,16.70
2013,08,25,11,14,16.70
2013,08,25,11,15,16.50
2013,08,25,11,16,16.20
2013,08,25,11,17,16.00
2013,08,25,11,18,15.90
2013,08,25,11,19,15.90
2013,08,25,11,20,15.80
2013,08,25,11,21,15.90
2013,08,25,11,22,15.80
2013,08,25,11,23,15.80
2013,08,25,11,24,15.80
2013,08,25,11,25,15.80
2013,08,25,11,26,15.60
2013,08,25,11,27,15.50
2013,08,25,11,28,15.40
2013,08,25,11,29,15.30
2013,08,25,11,30,15.30
2013,08,25,11,31,15.40
2013,08,25,11,32,15.60
2013,08,25,11,33,15.50
2013,08,25,11,34,15.30
2013,08,25,11,35,15.00
2013,08,25,11,36,14.90
2013,08,25,11,37,14.90
2013,08,25,11,38,14.80
2013,08,25,11,39,14.80
2013,08,25,11,40,14.70
2013,08,25,11,41,14.60
2013,08,25,11,42,14.60
2013,08,25,11,43,14.60
2013,08,25,11,44,14.80
2013,08,25,11,45,15.00
2013,08,25,11,46,15.10
2013,08,25,11,47,15.20
2013,08,25,11,48,15.10
2013,08,25,11,49,15.00
2013,08,25,11,50,15.00
2013,08,25,11,51,15.10
2013,08,25,11,52,15.20
2013,08,25,11,53,15.10
2013,08,25,11,54,15.00
2013,08,25,11,55,14.90
2013,08,25,11,56,14.80
2013,08,25,11,57,14.80
2013,08,25,11,58,14.80
2013,08,25,11,59,14.90
2013,08,25,12,00,15.00
2013,08,25,12,01,15.00
2013,08,25,12,02,15.20
2013,08,25,12,03,15.30
2013,08,25,12,04,15.30
2013,08,25,12,05,15.30
2013,08,25,12,06,15.40
2013,08,25,12,07,15.50
2013,08,25,12,08,15.70
2013,08,25,12,09,15.80
2013,08,25,12,10,15.60
2013,08,25,12,11,15.50
2013,08,25,12,12,15.30
2013,08,25,12,13,15.30
2013,08,25,12,14,15.30
2013,08,25,12,15,15.30
2013,08,25,12,16,15.40
2013,08,25,12,17,15.50
2013,08,25,12,18,15.60
2013,08,25,12,19,15.60
2013,08,25,12,20,15.60
2013,08,25,12,21,15.50
2013,08,25,12,22,15.40
2013,08,25,12,23,15.30
2013,08,25,12,24,15.30
2013,08,25,12,25,15.30
2013,08,25,12,26,15.50
2013,08,25,12,27,15.60
2013,08,25,12,28,15.70
2013,08,25,12,29,15.80
2013,08,25,12,30,15.90
2013,08,25,12,31,15.90
2013,08,25,12,32,15.90
2013,08,25,12,33,15.90
2013,08,25,12,34,15.80
2013,08,25,12,35,15.80
2013,08,25,12,36,15.80
2013,08,25,12,37,15.80
2013,08,25,12,38,15.80
2013,08,25,12,39,15.60
2013,08,25,12,40,15.50
2013,08,25,12,41,15.40
2013,08,25,12,42,15.50
2013,08,25,12,43,15.60
2013,08,25,12,44,15.70
2013,08,25,12,45,15.70
2013,08,25,12,46,15.70
2013,08,25,12,47,15.80
2013,08,25,12,48,15.80
2013,08,25,12,49,15.80
2013,08,25,12,50,15.70
2013,08,25,12,51,15.60
2013,08,25,12,52,15.70
2013,08,25,12,53,15.80
2013,08,25,12,54,15.90
2013,08,25,12,55,16.10
2013,08,25,12,56,16.30
2013,08,25,12,57,16.20
2013,08,25,12,58,16.00
2013,08,25,12,59,15.90
2013,08,25,13,00,15.70
2013,08,25,13,01,15.50
2013,08,25,13,02,15.30
2013,08,25,13,03,15.30
2013,08,25,13,04,15.30
2013,08,25,13,05,15.30
2013,08,25,13,06,15.40
2013,08,25,13,07,15.40
2013,08,25,13,08,15.50
2013,08,25,13,09,15.70
2013,08,25,13,10,15.70
2013,08,25,13,11,15.70
2013,08,25,13,12,15.70
2013,08,25,13,13,15.60
2013,08,25,13,14,15.60
2013,08,25,13,15,15.80
2013,08,25,13,16,15.90
2013,08,25,13,17,16.10
2013,08,25,13,18,16.10
2013,08,25,13,19,16.10
2013,08,25,13,20,16.10
2013,08,25,13,21,15.90
2013,08,25,13,22,15.80
2013,08,25,13,23,15.80
2013,08,25,13,24,15.80
2013,08,25,13,25,15.80
2013,08,25,13,26,15.80
2013,08,25,13,27,15.80
2013,08,25,13,28,15.90
2013,08,25,13,29,16.10
2013,08,25,13,30,16.00
2013,08,25,13,31,15.90
2013,08,25,13,32,15.90
2013,08,25,13,33,15.90
2013,08,25,13,34,15.90
2013,08,25,13,35,15.80
2013,08,25,13,36,15.80
2013,08,25,13,37,15.80
2013,08,25,13,38,15.80
2013,08,25,13,39,15.80
2013,08,25,13,40,15.80
2013,08,25,13,41,15.80
2013,08,25,13,42,16.00
2013,08,25,13,43,16.10
2013,08,25,13,44,16.10
2013,08,25,13,45,16.10
2013,08,25,13,46,16.10
2013,08,25,13,47,16.00
2013,08,25,13,48,15.90
2013,08,25,13,49,15.90
2013,08,25,13,50,15.80
2013,08,25,13,51,15.90
2013,08,25,13,52,16.00
2013,08,25,13,53,16.10
2013,08,25,13,54,16.20
2013,08,25,13,55,16.20
2013,08,25,13,56,16.10
2013,08,25,13,57,16.10
2013,08,25,13,58,16.10
2013,08,25,13,59,16.10
2013,08,25,14,00,16.00
2013,08,25,14,01,16.10
2013,08,25,14,02,16.20
2013,08,25,14,03,16.30
2013,08,25,14,04,16.30
2013,08,25,14,05,16.40
2013,08,25,14,06,16.60
2013,08,25,14,07,16.70
2013,08,25,14,08,16.70
2013,08,25,14,09,16.80
2013,08,25,14,10,16.90
2013,08,25,14,11,16.90
2013,08,25,14,12,17.00
2013,08,25,14,13,17.00
2013,08,25,14,14,17.00
2013,08,25,14,15,17.00
2013,08,25,14,16,16.90
2013,08,25,14,17,16.80
2013,08,25,14,18,16.70
2013,08,25,14,19,16.70
2013,08,25,14,20,16.70
2013,08,25,14,21,16.70
2013,08,25,14,22,16.70
2013,08,25,14,23,16.70
2013,08,25,14,24,16.70
2013,08,25,14,25,16.70
2013,08,25,14,26,16.70
2013,08,25,14,27,16.70
2013,08,25,14,28,16.80
2013,08,25,14,29,16.90
2013,08,25,14,30,16.90
2013,08,25,14,31,16.90
2013,08,25,14,32,16.90
2013,08,25,14,33,16.90
2013,08,25,14,34,16.90
2013,08,25,14,35,17.00
2013,08,25,14,36,17.20
2013,08,25,14,37,17.30
2013,08,25,14,38,17.40
2013,08,25,14,39,17.40
2013,08,25,14,40,17.50
2013,08,25,14,41,17.60
2013,08,25,14,42,17.70
2013,08,25,14,43,17.70
2013,08,25,14,44,17.90
2013,08,25,14,45,17.90
2013,08,25,14,46,17.90
2013,08,25,14,47,17.90
2013,08,25,14,48,17.90
2013,08,25,14,49,17.90
2013,08,25,14,50,18.00
2013,08,25,14,51,18.10
2013,08,25,14,52,18.10
2013,08,25,14,53,18.00
2013,08,25,14,54,18.00
2013,08,25,14,55,18.10
2013,08,25,14,56,18.20
2013,08,25,14,57,18.20
2013,08,25,14,58,18.30
2013,08,25,14,59,18.30
2013,08,25,15,00,18.40
2013,08,25,15,01,18.40
2013,08,25,15,02,18.50
2013,08,25,15,03,18.50
2013,08,25,15,04,18.40
2013,08,25,15,05,18.30
2013,08,25,15,06,18.30
2013,08,25,15,07,18.40
2013,08,25,15,08,18.40
2013,08,25,15,09,18.50
2013,08,25,15,10,18.40
2013,08,25,15,11,18.40
2013,08,25,15,12,18.40
2013,08,25,15,13,18.40
2013,08,25,15,14,18.40
2013,08,25,15,15,18.30
2013,08,25,15,16,18.30
2013,08,25,15,17,18.30
2013,08,25,15,18,18.30
2013,08,25,15,19,18.40
2013,08,25,15,20,18.40
2013,08,25,15,21,18.40
2013,08,25,15,22,18.30
2013,08,25,15,23,18.30
2013,08,25,15,24,18.10
2013,08,25,15,25,18.00
2013,08,25,15,26,17.90
2013,08,25,15,27,17.80
2013,08,25,15,28,17.70
2013,08,25,15,29,17.70
2013,08,25,15,30,17.70
2013,08,25,15,31,17.60
2013,08,25,15,32,17.50
2013,08,25,15,33,17.50
2013,08,25,15,34,17.50
2013,08,25,15,35,17.50
2013,08,25,15,36,17.50
2013,08,25,15,37,17.50
2013,08,25,15,38,17.40
2013,08,25,15,39,17.40
2013,08,25,15,40,17.50
2013,08,25,15,41,17.60
2013,08,25,15,42,17.70
2013,08,25,15,43,17.70
2013,08,25,15,44,17.70
2013,08,25,15,45,17.80
2013,08,25,15,46,17.80
2013,08,25,15,47,17.70
2013,08,25,15,48,17.70
2013,08,25,15,49,17.70
2013,08,25,15,50,17.50
2013,08,25,15,51,17.50
2013,08,25,15,52,17.40
2013,08,25,15,53,17.40
2013,08,25,15,54,17.40
2013,08,25,15,55,17.40
2013,08,25,15,56,17.40
2013,08,25,15,57,17.30
2013,08,25,15,58,17.30
2013,08,25,15,59,17.30
2013,08,25,16,00,17.30
2013,08,25,16,01,17.30
2013,08,25,16,02,17.20
2013,08,25,16,03,17.20
2013,08,25,16,04,17.10
2013,08,25,16,05,17.10
2013,08,25,16,06,17.10
2013,08,25,16,07,17.00
2013,08,25,16,08,17.00
2013,08,25,16,09,17.10
2013,08,25,16,10,17.10
2013,08,25,16,11,17.20
2013,08,25,16,12,17.20
2013,08,25,16,13,17.10
2013,08,25,16,14,17.10
2013,08,25,16,15,17.10
2013,08,25,16,16,17.10
2013,08,25,16,17,17.20
2013,08,25,16,18,17.10
2013,08,25,16,19,17.10
2013,08,25,16,20,17.00
2013,08,25,16,21,17.00
2013,08,25,16,22,17.00
2013,08,25,16,23,17.00
2013,08,25,16,24,17.00
2013,08,25,16,25,17.00
2013,08,25,16,26,17.00
2013,08,25,16,27,17.00
2013,08,25,16,28,17.00
2013,08,25,16,29,17.00
2013,08,25,16,30,17.00
2013,08,25,16,31,17.00
2013,08,25,16,32,17.00
2013,08,25,16,33,17.00
2013,08,25,16,34,17.10
2013,08,25,16,35,17.10
2013,08,25,16,36,17.10
2013,08,25,16,37,17.20
2013,08,25,16,38,17.20
2013,08,25,16,39,17.20
2013,08,25,16,40,17.20
2013,08,25,16,41,17.20
2013,08,25,16,42,17.20
2013,08,25,16,43,17.20
2013,08,25,16,44,17.20
2013,08,25,16,45,17.10
2013,08,25,16,46,17.10
2013,08,25,16,47,17.20
2013,08,25,16,48,17.20
2013,08,25,16,49,17.20
2013,08,25,16,50,17.20
2013,08,25,16,51,17.30
2013,08,25,16,52,17.30
2013,08,25,16,53,17.30
2013,08,25,16,54,17.30
2013,08,25,16,55,17.30
2013,08,25,16,56,17.30
2013,08,25,16,57,17.30
2013,08,25,16,58,17.30
2013,08,25,16,59,17.30
2013,08,25,17,00,17.30
2013,08,25,17,01,17.30
2013,08,25,17,02,17.30
2013,08,25,17,03,17.30
2013,08,25,17,04,17.30
2013,08,25,17,05,17.30
2013,08,25,17,06,17.30
2013,08,25,17,07,17.30
2013,08,25,17,08,17.30
2013,08,25,17,09,17.30
2013,08,25,17,10,17.30
2013,08,25,17,11,17.30
2013,08,25,17,12,17.40
2013,08,25,17,13,17.50
2013,08,25,17,14,17.50
2013,08,25,17,15,17.50
2013,08,25,17,16,17.50
2013,08,25,17,17,17.50
2013,08,25,17,18,17.50
2013,08,25,17,19,17.50
2013,08,25,17,20,17.50
2013,08,25,17,21,17.50
2013,08,25,17,22,17.50
2013,08,25,17,23,17.60
2013,08,25,17,24,17.60
2013,08,25,17,25,17.70
2013,08,25,17,26,17.70
2013,08,25,17,27,17.70
2013,08,25,17,28,17.80
2013,08,25,17,29,17.80
2013,08,25,17,30,17.90
2013,08,25,17,31,17.90
2013,08,25,17,32,18.00
2013,08,25,17,33,18.10
2013,08,25,17,34,18.10
2013,08,25,17,35,18.20
2013,08,25,17,36,18.20
2013,08,25,17,37,18.20
2013,08,25,17,38,18.10
2013,08,25,17,39,18.10
2013,08,25,17,40,18.00
2013,08,25,17,41,17.90
2013,08,25,17,42,17.90
2013,08,25,17,43,17.90
2013,08,25,17,44,17.90
2013,08,25,17,45,17.90
2013,08,25,17,46,18.10
2013,08,25,17,47,18.10
2013,08,25,17,48,18.10
2013,08,25,17,49,18.00
2013,08,25,17,50,17.90
2013,08,25,17,51,17.90
2013,08,25,17,52,17.90
2013,08,25,17,53,17.90
2013,08,25,17,54,17.90
2013,08,25,17,55,17.90
2013,08,25,17,56,17.90
2013,08,25,17,57,17.90
2013,08,25,17,58,17.90
2013,08,25,17,59,17.90
2013,08,25,18,00,17.80
2013,08,25,18,01,17.70
2013,08,25,18,02,17.60
2013,08,25,18,03,17.60
2013,08,25,18,04,17.50
2013,08,25,18,05,17.50
2013,08,25,18,06,17.40
2013,08,25,18,07,17.40
2013,08,25,18,08,17.30
2013,08,25,18,09,17.10
2013,08,25,18,10,17.00
2013,08,25,18,11,16.90
2013,08,25,18,12,16.80
2013,08,25,18,13,16.50
2013,08,25,18,14,16.40
2013,08,25,18,15,16.30
2013,08,25,18,16,16.20
2013,08,25,18,17,16.20
2013,08,25,18,18,16.10
2013,08,25,18,19,16.10
2013,08,25,18,20,16.10
2013,08,25,18,21,16.10
2013,08,25,18,22,16.10
2013,08,25,18,23,16.20
2013,08,25,18,24,16.20
2013,08,25,18,25,16.30
2013,08,25,18,26,16.30
2013,08,25,18,27,16.40
2013,08,25,18,28,16.40
2013,08,25,18,29,16.40
2013,08,25,18,30,16.50
2013,08,25,18,31,16.60
2013,08,25,18,32,16.70
2013,08,25,18,33,16.70
2013,08,25,18,34,16.80
2013,08,25,18,35,16.80
2013,08,25,18,36,16.80
2013,08,25,18,37,16.80
2013,08,25,18,38,16.80
2013,08,25,18,39,16.90
2013,08,25,18,40,16.90
2013,08,25,18,41,16.90
2013,08,25,18,42,16.90
2013,08,25,18,43,16.90
2013,08,25,18,44,16.90
2013,08,25,18,45,16.80
2013,08,25,18,46,16.80
2013,08,25,18,47,16.80
2013,08,25,18,48,16.80
2013,08,25,18,49,16.80
2013,08,25,18,50,16.80
2013,08,25,18,51,16.80
2013,08,25,18,52,16.80
2013,08,25,18,53,16.70
2013,08,25,18,54,16.70
2013,08,25,18,55,16.70
2013,08,25,18,56,16.60
2013,08,25,18,57,16.50
2013,08,25,18,58,16.40
2013,08,25,18,59,16.40
2013,08,25,19,00,16.40
2013,08,25,19,01,16.40
2013,08,25,19,02,16.40
2013,08,25,19,03,16.40
2013,08,25,19,04,16.40
2013,08,25,19,05,16.40
2013,08,25,19,06,16.30
2013,08,25,19,07,16.30
2013,08,25,19,08,16.30
2013,08,25,19,09,16.20
2013,08,25,19,10,16.20
2013,08,25,19,11,16.20
2013,08,25,19,12,16.10
2013,08,25,19,13,16.10
2013,08,25,19,14,16.00
2013,08,25,19,15,15.90
2013,08,25,19,16,15.80
2013,08,25,19,17,15.80
2013,08,25,19,18,15.80
2013,08,25,19,19,15.70
2013,08,25,19,20,15.60
2013,08,25,19,21,15.60
2013,08,25,19,22,15.60
2013,08,25,19,23,15.50
2013,08,25,19,24,15.50
2013,08,25,19,25,15.50
2013,08,25,19,26,15.50
2013,08,25,19,27,15.50
2013,08,25,19,28,15.50
2013,08,25,19,29,15.50
2013,08,25,19,30,15.40
2013,08,25,19,31,15.40
2013,08,25,19,32,15.40
2013,08,25,19,33,15.40
2013,08,25,19,34,15.40
2013,08,25,19,35,15.30
2013,08,25,19,36,15.30
2013,08,25,19,37,15.30
2013,08,25,19,38,15.30
2013,08,25,19,39,15.30
2013,08,25,19,40,15.30
2013,08,25,19,41,15.20
2013,08,25,19,42,15.20
2013,08,25,19,43,15.00
2013,08,25,19,44,14.90
2013,08,25,19,45,14.80
2013,08,25,19,46,14.60
2013,08,25,19,47,14.40
2013,08,25,19,48,14.40
2013,08,25,19,49,14.20
2013,08,25,19,50,14.20
2013,08,25,19,51,14.20
2013,08,25,19,52,14.10
2013,08,25,19,53,14.00
2013,08,25,19,54,14.00
2013,08,25,19,55,13.90
2013,08,25,19,56,13.80
2013,08,25,19,57,13.80
2013,08,25,19,58,13.70
2013,08,25,19,59,13.70
2013,08,25,20,00,13.70
2013,08,25,20,01,13.70
2013,08,25,20,02,13.60
2013,08,25,20,03,13.50
2013,08,25,20,04,13.50
2013,08,25,20,05,13.40
2013,08,25,20,06,13.30
2013,08,25,20,07,13.30
2013,08,25,20,08,13.20
2013,08,25,20,09,13.20
2013,08,25,20,10,13.10
2013,08,25,20,11,13.00
2013,08,25,20,12,13.00
2013,08,25,20,13,12.90
2013,08,25,20,14,12.90
2013,08,25,20,15,12.90
2013,08,25,20,16,12.80
2013,08,25,20,17,12.80
2013,08,25,20,18,12.80
2013,08,25,20,19,12.80
2013,08,25,20,20,12.70
2013,08,25,20,21,12.70
2013,08,25,20,22,12.70
2013,08,25,20,23,12.60
2013,08,25,20,24,12.60
2013,08,25,20,25,12.60
2013,08,25,20,26,12.60
2013,08,25,20,27,12.60
2013,08,25,20,28,12.60
2013,08,25,20,29,12.60
2013,08,25,20,30,12.50
2013,08,25,20,31,12.50
2013,08,25,20,32,12.50
2013,08,25,20,33,12.50
2013,08,25,20,34,12.50
2013,08,25,20,35,12.50
2013,08,25,20,36,12.40
2013,08,25,20,37,12.40
2013,08,25,20,38,12.40
2013,08,25,20,39,12.40
2013,08,25,20,40,12.40
2013,08,25,20,41,12.40
2013,08,25,20,42,12.40
2013,08,25,20,43,12.40
2013,08,25,20,44,12.40
2013,08,25,20,45,12.40
2013,08,25,20,46,12.40
2013,08,25,20,47,12.30
2013,08,25,20,48,12.30
2013,08,25,20,49,12.30
2013,08,25,20,50,12.30
2013,08,25,20,51,12.30
2013,08,25,20,52,12.30
2013,08,25,20,53,12.30
2013,08,25,20,54,12.30
2013,08,25,20,55,12.30
2013,08,25,20,56,12.30
2013,08,25,20,57,12.30
2013,08,25,20,58,12.30
2013,08,25,20,59,12.30
2013,08,25,21,00,12.30
2013,08,25,21,01,12.30
2013,08,25,21,02,12.20
2013,08,25,21,03,12.20
2013,08,25,21,04,12.20
2013,08,25,21,05,12.20
2013,08,25,21,06,12.20
2013,08,25,21,07,12.20
2013,08,25,21,08,12.20
2013,08,25,21,09,12.10
2013,08,25,21,10,12.10
2013,08,25,21,11,12.10
2013,08,25,21,12,12.10
2013,08,25,21,13,12.10
2013,08,25,21,14,12.10
2013,08,25,21,15,12.10
2013,08,25,21,16,12.10
2013,08,25,21,17,12.10
2013,08,25,21,18,12.10
2013,08,25,21,19,12.10
2013,08,25,21,20,12.00
2013,08,25,21,21,12.00
2013,08,25,21,22,12.00
2013,08,25,21,23,12.00
2013,08,25,21,24,12.00
2013,08,25,21,25,12.00
2013,08,25,21,26,12.00
2013,08,25,21,27,12.10
2013,08,25,21,28,12.10
2013,08,25,21,29,12.10
2013,08,25,21,30,12.10
2013,08,25,21,31,12.10
2013,08,25,21,32,12.10
2013,08,25,21,33,12.10
2013,08,25,21,34,12.10
2013,08,25,21,35,12.10
2013,08,25,21,36,12.10
2013,08,25,21,37,12.10
2013,08,25,21,38,12.10
2013,08,25,21,39,12.10
2013,08,25,21,40,12.10
2013,08,25,21,41,12.10
2013,08,25,21,42,12.20
2013,08,25,21,43,12.20
2013,08,25,21,44,12.20
2013,08,25,21,45,12.20
2013,08,25,21,46,12.20
2013,08,25,21,47,12.20
2013,08,25,21,48,12.20
2013,08,25,21,49,12.20
2013,08,25,21,50,12.20
2013,08,25,21,51,12.20
2013,08,25,21,52,12.20
2013,08,25,21,53,12.20
2013,08,25,21,54,12.20
2013,08,25,21,55,12.20
2013,08,25,21,56,12.20
2013,08,25,21,57,12.20
2013,08,25,21,58,12.10
2013,08,25,21,59,12.10
2013,08,25,22,00,12.10
2013,08,25,22,01,12.10
2013,08,25,22,02,12.10
2013,08,25,22,03,12.10
2013,08,25,22,04,12.10
2013,08,25,22,05,12.00
2013,08,25,22,06,12.00
2013,08,25,22,07,12.00
2013,08,25,22,08,12.00
2013,08,25,22,09,12.10
2013,08,25,22,10,12.10
2013,08,25,22,11,12.10
2013,08,25,22,12,12.10
2013,08,25,22,13,12.10
2013,08,25,22,14,12.10
2013,08,25,22,15,12.10
2013,08,25,22,16,12.10
2013,08,25,22,17,12.10
2013,08,25,22,18,12.10
2013,08,25,22,19,12.10
2013,08,25,22,20,12.00
2013,08,25,22,21,12.00
2013,08,25,22,22,12.00
2013,08,25,22,23,12.00
2013,08,25,22,24,12.00
2013,08,25,22,25,12.00
2013,08,25,22,26,12.00
2013,08,25,22,27,12.00
2013,08,25,22,28,12.00
2013,08,25,22,29,12.00
2013,08,25,22,30,12.00
2013,08,25,22,31,12.00
2013,08,25,22,32,12.00
2013,08,25,22,33,12.00
2013,08,25,22,34,12.00
2013,08,25,22,35,12.00
2013,08,25,22,36,12.00
2013,08,25,22,37,12.00
2013,08,25,22,38,12.00
2013,08,25,22,39,12.00
2013,08,25,22,40,12.00
2013,08,25,22,41,12.00
2013,08,25,22,42,12.00
2013,08,25,22,43,12.00
2013,08,25,22,44,12.00
2013,08,25,22,45,12.00
2013,08,25,22,46,12.00
2013,08,25,22,47,12.00
2013,08,25,22,48,12.00
2013,08,25,22,49,11.90
2013,08,25,22,50,11.90
2013,08,25,22,51,11.90
2013,08,25,22,52,11.90
2013,08,25,22,53,11.90
2013,08,25,22,54,11.90
2013,08,25,22,55,11.90
2013,08,25,22,56,11.90
2013,08,25,22,57,11.90
2013,08,25,22,58,11.90
2013,08,25,22,59,11.90
2013,08,25,23,00,11.90
2013,08,25,23,01,11.90
2013,08,25,23,02,11.90
2013,08,25,23,03,11.90
2013,08,25,23,04,11.80
2013,08,25,23,05,11.80
2013,08,25,23,06,11.80
2013,08,25,23,07,11.80
2013,08,25,23,08,11.80
2013,08,25,23,09,11.80
2013,08,25,23,10,11.80
2013,08,25,23,11,11.80
2013,08,25,23,12,11.80
2013,08,25,23,13,11.80
2013,08,25,23,14,11.80
2013,08,25,23,15,11.80
2013,08,25,23,16,11.80
2013,08,25,23,17,11.80
2013,08,25,23,18,11.80
2013,08,25,23,19,11.80
2013,08,25,23,20,11.80
2013,08,25,23,21,11.80
2013,08,25,23,22,11.80
2013,08,25,23,23,11.80
2013,08,25,23,24,11.80
2013,08,25,23,25,11.80
2013,08,25,23,26,11.80
2013,08,25,23,27,11.70
2013,08,25,23,28,11.70
2013,08,25,23,29,11.70
2013,08,25,23,30,11.70
2013,08,25,23,31,11.70
2013,08,25,23,32,11.70
2013,08,25,23,33,11.70
2013,08,25,23,34,11.70
2013,08,25,23,35,11.70
2013,08,25,23,36,11.70
2013,08,25,23,37,11.70
2013,08,25,23,38,11.70
2013,08,25,23,39,11.70
2013,08,25,23,40,11.70
2013,08,25,23,41,11.70
2013,08,25,23,42,11.70
2013,08,25,23,43,11.70
2013,08,25,23,44,11.70
2013,08,25,23,45,11.70
2013,08,25,23,46,11.70
2013,08,25,23,47,11.70
2013,08,25,23,48,11.70
2013,08,25,23,49,11.70
2013,08,25,23,50,11.70
2013,08,25,23,51,11.70
2013,08,25,23,52,11.70
2013,08,25,23,53,11.70
2013,08,25,23,54,11.70
2013,08,25,23,55,11.70
